www.pogodaiklimat.ru
ПОГОДА в Равенне
Время
и дата
05:35 15.07
05:55 15.07
06:15 15.07
06:35 15.07
06:55 15.07
07:15 15.07
07:35 15.07
07:55 15.07
08:15 15.07
08:35 15.07
08:55 15.07
09:15 15.07
09:35 15.07
09:55 15.07
10:15 15.07
10:35 15.07
10:55 15.07
11:15 15.07
11:35 15.07
11:55 15.07
12:15 15.07
12:35 15.07
12:55 15.07
13:15 15.07
13:35 15.07
13:55 15.07
14:15 15.07
14:35 15.07
14:55 15.07
15:15 15.07
15:35 15.07
15:55 15.07
16:15 15.07
16:35 15.07
16:55 15.07
17:15 15.07
17:35 15.07
17:55 15.07
18:15 15.07
18:35 15.07
18:55 15.07
19:15 15.07
19:35 15.07
19:55 15.07
20:15 15.07
20:35 15.07
20:55 15.07
21:15 15.07
Ветер
(напр.,м/с)
Видим. Явления Облачность Т
(С)
Тd
(С)
f
(%)
Тe
(С)
Тes
(С)
Комфортность P
(гПа)
Po
(гПа)
Тmin
(С)
Tmax
(С)
R
(мм)
R24
(мм)
S
(см)
штиль 0 16 км 8/0 3600 m
[Ac]
+21.1 +18.0 82 +25 +25 комфорт 971.3
Ю 2 16 км 5/0 3600 m
[Ac]
+21.2 +18.0 82 +25 +25 комфорт 971.0
штиль 0 16 км ясно +21.3 +18.1 82 +26 +26 душно 970.6
ЮЗ 2 16 км ясно +21.5 +18.3 82 +26 +27 душно 971.0
ЮЗ 2 16 км 5/5 1200 м +22.3 +18.3 78 +27 +28 душно 971.3
ЮЗ 2 16 км ясно +22.6 +18.7 79 +28 +31 душно 971.3
ЮЗ 3 16 км ясно +23.5 +18.9 75 +28 +30 душно 971.3
ЮЗ 2 16 км 8/8 570 м +23.3 +19.0 77 +30 +30 очень
душно
971.3
ЮЗ 3 16 км 8/8 570 м +24.0 +19.2 75 +29 +30 душно 971.0
ЮЗ 3 11 км 5/5 510 m
[Ac]
+24.2 +19.5 75 +29 +32 душно 970.6
Ю 3 11 км 5/5 510 m
[Ac]
+25.1 +19.6 72 +31 +33 очень
душно
970.3
ЮЗ 3 16 км 5/5 510 m
[Ac]
+25.5 +20.0 72 +31 +36 очень
душно
970.3
ЮЗ 2 16 км 5/5 510 m
[Ac]
+25.2 +19.8 72 +31 +36 очень
душно
970.3
ЮЗ 3 16 км ясно +25.2 +20.1 73 +31 +40 очень
душно
970.0
ЮЗ 2 16 км ясно +25.5 +20.2 73 +31 +46 очень
душно
970.0
Ю 3 16 км ясно +26.0 +20.5 72 +32 +44 очень
душно
970.0
ЮЗ 6
{8}
16 км 5/5 60 м +26.8 +19.3 63 +32 +35 очень
душно
970.0
ЮЗ 5
{9}
16 км 5/5 780 м +27.5 +18.5 58 +32 +37 очень
душно
970.0
ЮЗ 4
{9}
16 км 5/5 960 м +27.2 +18.0 57 +32 +38 очень
душно
969.3
ЮЗ 4
{8}
16 км 5/5 960 м +27.6 +18.6 58 +33 +39 очень
душно
969.7
ЮЗ 5
{9}
16 км 8/8 1020 м +27.3 +18.7 59 +32 +34 очень
душно
970.0
З 4
{8}
16 км 10/10 960 м +27.1 +18.4 59 +32 +32 очень
душно
969.7
З 5
{8}
16 км 8/8 1020 м +28.0 +19.0 58 +33 +35 очень
душно
969.3
З 6
{9}
16 км 8/8 1080 м +28.4 +17.9 53 +33 +34 очень
душно
969.3
З 4
{8}
16 км 5/5 1260 м +29.0 +17.4 50 +33 +40 очень
душно
969.3
З 7
{9}
16 км 8/8 1320 м +29.0 +16.9 48 +33 +34 очень
душно
969.3
З 7
{11}
16 км 5/5 1380 м +28.6 +16.2 47 +32 +34 душно 969.3
З 7
{11}
16 км 5/5 1380 м +29.5 +15.7 43 +32 +35 душно 969.0
З 7
{12}
16 км ясно +29.5 +16.1 44 +33 +37 душно 969.0
З 7
{11}
16 км 5/5 1350 м +29.4 +16.3 45 +33 +35 душно 969.0
З 5
{9}
16 км 5/5 1350 м +29.0 +16.5 47 +32 +36 душно 968.7
З 4 16 км 5/5 1380 м +29.2 +16.8 47 +33 +37 очень
душно
968.7
З 7
{9}
16 км 5/5 1320 м +29.3 +16.3 45 +32 +34 душно 968.7
З 6 16 км 5/5 1320 м +29.5 +16.0 44 +33 +34 душно 968.7
З 5 16 км ясно +29.2 +16.1 45 +32 +37 душно 968.7
З 5 16 км ясно +29.3 +16.4 46 +33 +36 душно 968.7
З 4 16 км ясно +29.2 +16.5 46 +33 +36 очень
душно
968.4
З 3 16 км ясно +29.0 +16.8 48 +33 +37 очень
душно
968.4
З 4 16 км ясно +28.5 +17.8 52 +33 +34 очень
душно
968.4
З 3 16 км ясно +28.1 +18.0 54 +33 +34 очень
душно
968.4
З 2 16 км ясно +27.6 +18.4 57 +32 +35 очень
душно
968.4
штиль 0 16 км 5/5 1320 м +26.7 +19.0 63 +32 +32 очень
душно
968.4
штиль 0 16 км 5/5 1290 м +25.0 +19.4 71 +30 +31 душно 968.0
штиль 0 16 км 8/8 1290 м +24.1 +19.9 77 +29 +30 душно 968.0
штиль 0 16 км 8/8 1320 м +23.6 +19.8 79 +29 +29 душно 967.7
штиль 0 16 км ясно +23.3 +20.0 82 +30 +30 очень
душно
967.7
штиль 0 16 км ясно +21.7 +19.3 86 +27 +27 душно 967.7
штиль 0 16 км ясно +21.5 +19.0 86 +26 +26 душно 967.7
Местоположение метеостанции Portage County Airport: широта 41.2100 долгота -81.2520 высота над уровнем моря 365 м.
В архиве по умолчанию представлена погода в Равенне за последние 1-2 суток. Обновление информации о фактической погоде в базе происходит ежечасно! Архивные данные за месяц целиком и за предыдущие месяцы Вы можете получить, выбрав интересующий диапазон дат из раскрывающегося списка и нажав кнопку "Ввод!".
Внимание! Архив погоды МЕТАР в базе сайта по станциям, не включенным в климатический монитор, хранится не более 60 дней. Нет смысла пытаться выбрать более раннюю дату.
*Определитесь, кто Вы:
Внимание! Время в таблицах - местное (без учета летнего времени). Для получения всемирного времени необходимо вычесть поправку, которая равна -5 ч.
Смотрите также архив погоды в соседних городах и на ближайших метеорологических станциях:
Партнеры нашего сайта:      
Пояснения к столбцам:
  • Ветер - указаны скорость ветра в м/с - средняя за 10 мин, порывы в срок и между сроками (в фигурных скобках) и направление, откуда дует ветер: С - северный,
  • СВ - северо-восточный, В - восточный, ЮВ - юго-восточный, Ю - южный, ЮЗ - юго-западный, З - западный, СЗ - северо-западный.
  • Видимость - горизонтальная дальность видимости в метрах или километрах. При видимости от 1 до 10 км при отсутствии осадков обычно наблюдается дымка, при ухудшении видимости до 1 км и менее - туман. В сухую погоду видимость может ухудшаться дымом, пылью или мглою.
  • Явления - указаны атмосферные явления, наблюдавшиеся в срок или в последний час перед сроком; фигурными скобками обозначены явления, наблюдавшиеся между сроками (за 1-3 часа до срока); квадратными скобками обозначены град или гололедные отложения с указанием их диаметра в мм.
  • Облачность - указаны через наклонную черту общая и нижняя облачность в баллах и высота нижней границы облаков в метрах; квадратными скобками обозначены формы облаков: Ci - перистые, Cs - перисто-слоистые, Cc - перисто-кучевые, Ac - высококучевые, As - высокослоистые, Sc - слоисто-кучевые, Ns - слоисто-дождевые, Cu - кучевые, Cb - кучево-дождевые. Подробнее классификацию облаков см. в Атласе облаков (PDF).
  • T - Температура воздуха - температура, измеренная на высоте 2 м над землей.
  • Td - Температура точки росы - температура, при понижении до которой содержащийся в воздухе водяной пар достигнет насыщения.
  • f - Относительная влажность воздуха - влажноcть воздуха, измеренная на высоте 2 м над землей.
  • Te - Эффективная температура - температура, которую ощущает одетый по сезону человек в тени. Характеристика душности погоды. При расчете учитывается влияние влажности воздуха и скорости ветра на теплоощущения человека.
  • Tes - Эффективная температура на солнце - температура, которую ощущает человек, с поправкой на солнечный нагрев. Характеристика знойности погоды. Зависит от высоты солнца над горизонтом, облачности и скорости ветра. Ночью, в пасмурную погоду, а также при ветре 12 м/с и более поправка равна нулю.
  • P - Атмосферное давление - приведенное к уровню моря атмосферное давление.
  • Po - Атмосферное давление - измеренное на уровне метеостанции атмосферное давление.
  • Tmin - Минимальная температура - минимум температуры воздуха на высоте 2 м над землей.
  • Tmax - Максимальная температура - максимум температуры воздуха на высоте 2 м над землей.
  • R - Количество осадков - Количество выпавших осадков за период времени, мм. При наведении курсора мыши на число - период времени, за который выпало указанное количество осадков.
  • R24 - Количество осадков - Количество выпавших осадков за 24 часа, мм.
  • S - Снежный покров - Высота снежного покрова, см. При наведении курсора мыши на число - состояние снежного покрова и степень покрытия местности в баллах.